1998-067NY (43550 NORAD) Tracking and Keplerian Element Data

This shows tracking and keplerian element data for the satellite.

Feedback or suggestion? Click here.




ElementValue
Catalog43550
Name1998-067NY
Epoch Orbit1939
Epoch Day318.58561219
Epoch Year2018
RAAN347.2733
Inclination51.6391
Eccentricity0.0005688
Argument of Perigee57.737
Mean Anonmoly302.4173
Mean Motion15.57794352
Decay Rate0.00011859
L11 43550U 98067NY 18318.58561219 .00011859 00000-0 16274-3 0 9992
L22 43550 51.6391 347.2733 0005688 57.7370 302.4173 15.57794352 19399

Live tracking and technical data element details for 1998-067NY (NORAD 43550). 1998-067NY can be tracked NOW for your location showing map with azimuth and elevation plus other details from your city location.

Track the satellite on the map from your city or location and see movement details for azimuth, elevation, latitude, longitude, range, height, and movement on the map or in text.







IsCatalogInMostPopularTable: catalog: 43550, numindb: 39
Update: records affected: 1



GetName: 43550 1998-067NY

Hit Count: updated at: Fri, 16 Nov 2018 03:22:42 GMT